Location: Benque
(43.2594°N, 0.9178°E)
Time: 18:40:47
(UTC+00:00)

Cosmos 2227 Rocket - Pass Details

Date: 24 January 2020
Orbit: 840 x 844 km, 71.0° (Epoch: 25 February)

Event Time Altitude Azimuth Distance (km) Brightness Sun altitude
Rises 17:49:02 0° 200° (SSW) 3,382 5.9 -9.6°
Reaches altitude 10° 17:51:27 10° 200° (SSW) 2,451 5.2 -10.1°
Maximum altitude 17:57:05 84° 114° (ESE) 851 2.2 -11.0°
Drops below altitude 10° 18:02:46 10° 26° (NNE) 2,466 4.2 -12.0°
Enters shadow 18:04:26 - 26° (NNE) 3,103 4.8 -12.3°
